www.pogodaiklimat.ru
Время
(UTC), дата
10 10.04
11 10.04
12 10.04
13 10.04
14 10.04
15 10.04
16 10.04
17 10.04
18 10.04
19 10.04
20 10.04
21 10.04
22 10.04
23 10.04
00 11.04
01 11.04
02 11.04
03 11.04
04 11.04
05 11.04
06 11.04
07 11.04
08 11.04
09 11.04
10 11.04
11 11.04
12 11.04
13 11.04
14 11.04
15 11.04
16 11.04
17 11.04
18 11.04
19 11.04
20 11.04
21 11.04
22 11.04
23 11.04
00 12.04
01 12.04
02 12.04
03 12.04
04 12.04
05 12.04
06 12.04
07 12.04
08 12.04
09 12.04
10 12.04
11 12.04
12 12.04
13 12.04
14 12.04
15 12.04
16 12.04
17 12.04
18 12.04
19 12.04
20 12.04
21 12.04
22 12.04
23 12.04
00 13.04
01 13.04
02 13.04
03 13.04
04 13.04
05 13.04
06 13.04
07 13.04
08 13.04
09 13.04
10 13.04
11 13.04
12 13.04
13 13.04
14 13.04
15 13.04
16 13.04
17 13.04
18 13.04
19 13.04
20 13.04
21 13.04
22 13.04
23 13.04
00 14.04
01 14.04
02 14.04
03 14.04
04 14.04
05 14.04
06 14.04
07 14.04
08 14.04
09 14.04
10 14.04
11 14.04
12 14.04
13 14.04
14 14.04
15 14.04
16 14.04
17 14.04
18 14.04
19 14.04
20 14.04
21 14.04
22 14.04
23 14.04
00 15.04
01 15.04
02 15.04
03 15.04
04 15.04
05 15.04
06 15.04
07 15.04
08 15.04
09 15.04
10 15.04
11 15.04
12 15.04
13 15.04
14 15.04
15 15.04
16 15.04
17 15.04
18 15.04
19 15.04
20 15.04
21 15.04
22 15.04
23 15.04
00 16.04
01 16.04
02 16.04
03 16.04
04 16.04
05 16.04
06 16.04
07 16.04
08 16.04
09 16.04
10 16.04
11 16.04
12 16.04
13 16.04
14 16.04
15 16.04
16 16.04
17 16.04
18 16.04
19 16.04
20 16.04
21 16.04
22 16.04
23 16.04
00 17.04
01 17.04
02 17.04
03 17.04
04 17.04
05 17.04
06 17.04
07 17.04
08 17.04
09 17.04
10 17.04
Ветер
(напр.,м/с)
Видим. Явления Облачность Т
(С)
Тd
(С)
f
(%)
Тe
(С)
Тes
(С)
Комфортность P
(гПа)
Po
(гПа)
Тmin
(С)
Tmax
(С)
R
(мм)
R24
(мм)
S
(см)
ЮЗ 7 35 км н/о +6.2 -4.8 45 +2 +2 тепло 1006.4 1002.3
З 7 35 км н/о +4.8 -2.1 61 -0 -0 тепло 1007.6 1003.5
ЮЗ 7 35 км слаб. крупа 9/9 300 м
[Cb cap As trans Ci fib]
+4.1 -2.5 62 -1 -0 прохладно 1008.6 1004.4 0.7
З 7 35 км н/о +4.7 -1.9 62 -1 -1 по сезону 1009.4 1005.3
З 7 35 км н/о +4.7 -1.9 62 -1 -1 по сезону 1010.2 1006.1
З 7 35 км {ливн. дождь} 6/6 600 м
[Cu Sc As op Cs]
+4.8 -4.1 52 -0 0 по сезону 1011.1 1007.0
З 7 35 км н/о +4.5 -3.4 56 -1 -1 по сезону 1011.9 1007.8
ЮЗ 5 35 км н/о +4.2 -3.3 58 -0 -0 тепло 1012.7 1008.6
ЮЗ 3 35 км {ливн. дождь} ясно +2.9 -2.3 69 -1 -1 по сезону 1013.7 1009.5 +2.2 +7.3
ЮЗ 3 35 км н/о +2.4 -2.4 71 -1 -1 по сезону 1014.5 1010.3
Ю 3 35 км н/о +1.8 -2.8 71 -2 -2 тепло 1015.0 1010.8
Ю 4 35 км ясно +1.2 -1.4 83 -4 -4 прохладно 1015.7 1011.5
ЮЗ 3 35 км н/о +1.3 -0.5 88 -3 -3 по сезону 1016.3 1012.1
Ю 4 35 км н/о +1.3 -0.3 89 -4 -4 по сезону 1016.9 1012.7 +1.0 +5.5
ЮЗ 4 35 км 1/1 600 м
[St Ac trans Ci ing]
+1.1 -0.4 90 -4 -4 по сезону 1017.3 1013.1
ЮЗ 3 35 км н/о +0.7 -0.4 92 -4 -4 по сезону 1017.9 1013.7
ЮЗ 3 30 км н/о +0.1 -0.5 96 -5 -5 тепло 1018.4 1014.1
Ю 3 35 км ясно +0.1 -0.5 96 -5 -5 прохладно 1018.8 1014.6
Ю 4 35 км н/о +0.2 -0.6 94 -5 -5 по сезону 1019.6 1015.3
ЮЗ 4 35 км н/о +0.9 -0.3 92 -4 -4 тепло 1020.5 1016.3
ЮЗ 4 35 км 3/0 2000 м
[Ac trans]
+2.3 +0.4 87 -3 -3 по сезону 1021.3 1017.1 -0.1 +3.0
Ю 5 35 км н/о +2.6 +0.6 87 -3 -3 по сезону 1022.1 1017.9
н/о
ЮЗ 4 35 км 1/0 +7.4 -1.9 52 +4 +10 по сезону 1023.2 1019.0
ЮЗ 3 35 км н/о +9.6 -2.6 42 +8 +8 тепло 1023.4 1019.3
Ю 3 35 км н/о +10.4 -4.0 36 +9 +9 тепло 1023.5 1019.4
ЮЗ 3 35 км 8/3 1000 м
[Cu Sc Ac lent]
+10.4 -5.7 32 +9 +9 тепло 1023.6 1019.5
С 3 35 км н/о +8.0 +0.5 59 +6 +6 тепло 1023.9 1019.8
С 2 35 км н/о +6.3 +1.7 72 +4 +4 тепло 1024.0 1019.9
СВ 3 35 км 9/8
[Ac cuf Ci fib]
+7.4 +1.1 64 +5 +6 по сезону 1023.5 1019.4
СВ 2 35 км н/о +7.6 -0.7 56 +6 +6 тепло 1023.3 1019.2
В 2 13 км н/о +7.8 -2.2 49 +6 +6 тепло 1022.9 1018.8
В 3 12 км 9/9 2000 м
[Ac und Cs]
+7.4 -2.1 51 +5 +5 тепло 1023.4 1019.3 +2.3 +11.2
В 3 15 км н/о +7.6 -3.9 44 +5 +5 тепло 1023.3 1019.1
В 4 30 км н/о +6.6 -0.5 60 +3 +3 тепло 1022.5 1018.3
В 3 35 км слаб. ливневой дождь 9/8 600 м
[Cb cap As op Ci sp]
+6.1 +1.6 73 +3 +3 по сезону 1022.3 1018.2 0.1
В 5 35 км н/о +6.1 +1.4 72 +2 +2 тепло 1021.1 1017.0
В 5 35 км н/о +6.2 +0.8 68 +2 +2 тепло 1020.2 1016.1
ЮВ 5 35 км {ливн. дождь} 4/4
[Ac cuf Cs]
+6.2 +1.1 70 +2 +2 по сезону 1019.1 1015.0
ЮВ 5 35 км н/о +6.6 +2.1 73 +3 +3 тепло 1018.4 1014.3
ЮВ 5 35 км н/о +7.1 +2.6 73 +3 +3 тепло 1017.9 1013.7
ЮВ 5 35 км 3/3 +7.2 +2.5 72 +3 +3 тепло 1017.4 1013.3
ЮВ 5 35 км н/о +7.4 +2.1 69 +4 +4 тепло 1017.2 1013.2
Ю 5 35 км н/о +8.6 +2.0 63 +5 +5 тепло 1017.0 1013.0
Ю 5 35 км 9/5 +10.4 +1.6 54 +8 +9 тепло 1017.1 1013.1 +5.9 +10.5
Ю 4 15 км н/о +11.8 +1.3 49 +10 +10 тепло 1017.0 1013.0
н/о
Ю 5 35 км 9/8
[Ac cuf Cs]
+14.4 +0.9 40 +13 +16 тепло 1017.1 1013.1
Ю 5 35 км н/о +16.2 +1.3 36 +15 +15 тепло 1017.0 1013.1
Ю 5 35 км н/о +16.2 +1.6 37 +15 +15 тепло 1017.2 1013.2
Ю 4 35 км 9/9
[Ac cuf Cs]
+16.2 +1.6 37 +16 +18 тепло 1017.1 1013.1
Ю 5 35 км н/о +16.4 +0.5 34 +16 +16 тепло 1016.8 1012.9
Ю 4 35 км н/о +16.0 +0.4 35 +15 +15 тепло 1016.7 1012.7
ЮЗ 3 35 км 9/9
[Ac cuf Cs]
+15.3 -0.9 33 +15 +16 тепло 1016.5 1012.5
н/о
Ю 2 35 км н/о +14.3 -0.7 36 +14 +14 тепло 1016.4 1012.4
Ю 3 35 км 9/9
[Ac und Cc]
+13.9 +0.2 39 +13 +13 тепло 1016.5 1012.5 +10.1 +16.9
ЮЗ 2 35 км н/о +12.8 +2.2 48 +12 +12 тепло 1016.6 1012.6
ЮЗ 2 35 км н/о +12.0 +2.9 54 +11 +11 тепло 1016.3 1012.3
З 3 23 км 9/9 2000 м
[Ac und Cs]
+5.9 +3.4 84 +3 +3 по сезону 1016.9 1012.8
З 3 30 км н/о +4.9 +3.2 89 +1 +1 тепло 1017.6 1013.4
З 3 29 км н/о +4.7 +3.3 91 +1 +1 тепло 1018.0 1013.9
З 2 35 км 9/8 200 м
[Frnb Cs]
+4.5 +3.1 91 +2 +2 по сезону 1018.1 1014.0
З 3 35 км н/о +4.2 +2.8 91 0 0 тепло 1018.2 1014.1
З 3 35 км н/о +3.8 +2.2 89 -0 -0 тепло 1018.1 1014.0
З 3 35 км 9/9 600 м
[St Ac trans Ci ing]
+3.7 +1.9 88 -0 -0 по сезону 1018.3 1014.1
З 3 35 км н/о +3.8 +2.3 90 -0 -0 тепло 1019.0 1014.9
ЮЗ 2 35 км н/о +4.0 +2.3 89 +1 +1 тепло 1019.3 1015.1
Ю 2 35 км {ливн. дождь} 10/9 1000 м
[St Ac lent Cs]
+4.5 +2.4 86 +2 +3 по сезону 1019.8 1015.7 +3.6 +13.9
ЮЗ 2 35 км н/о +5.0 +2.7 85 +2 +2 тепло 1020.3 1016.1
н/о
ЮЗ 2 35 км {ливн. дождь} 10/3 600 м
[Cu Sc As op Cs]
+7.3 +2.4 71 +5 +7 по сезону 1020.8 1016.7
З 3 35 км н/о +6.2 +2.3 76 +3 +3 тепло 1021.0 1016.9
З 3 25 км н/о +5.8 +0.1 67 +3 +3 тепло 1021.2 1017.0
З 2 35 км {ливн. дождь} 9/3 600 м
[Cu Sc As op Cs]
+7.2 -0.9 56 +6 +8 по сезону 1021.3 1017.2
З 3 35 км н/о +8.1 -2.4 47 +6 +6 тепло 1021.4 1017.3
З 3 35 км н/о +7.1 -2.4 51 +5 +5 тепло 1021.0 1016.9
З 3 35 км 9/3 600 м
[Cu Sc As op Cs]
+6.0 -2.9 53 +3 +4 по сезону 1021.1 1017.0
З 3 35 км н/о +5.5 -4.1 50 +3 +3 по сезону 1021.1 1016.9
З 2 35 км н/о +4.6 -3.5 56 +2 +2 тепло 1021.1 1017.0
ЮЗ 1 35 км 8/1 600 м
[St Ac trans Ci ing]
+3.4 -2.7 64 +2 +2 по сезону 1021.5 1017.3 +3.4 +8.2
ЮЗ 1 35 км н/о +2.6 -1.8 73 +1 +1 по сезону 1021.5 1017.3
З 2 35 км н/о +2.9 -0.7 77 0 0 тепло 1021.3 1017.1
ЮЗ 1 35 км 8/6
[Ac cuf Ci]
+2.4 -0.1 84 +1 +1 по сезону 1021.1 1016.9
ЮЗ 1 35 км н/о +2.0 -0.4 84 0 0 по сезону 1021.0 1016.9
ЮЗ 2 35 км н/о +1.7 -0.3 87 -2 -2 тепло 1021.0 1016.8
ЮЗ 1 35 км 6/4 200 м
[Frnb As trans]
+1.3 -0.2 90 -1 -1 по сезону 1020.5 1016.3
ЮЗ 1 35 км н/о +0.3 -0.6 94 -2 -2 по сезону 1020.5 1016.2
ЮЗ 2 26 км н/о -0.8 -1.2 97 -5 -5 тепло 1020.7 1016.5
ЮЗ 1 26 км 3/3 -0.8 -1.1 98 -3 -3 по сезону 1020.7 1016.4
ЮЗ 1 17 км н/о -0.5 -0.7 99 -3 -3 по сезону 1020.8 1016.6
З 3 15 км н/о +0.9 +0.3 96 -4 -4 тепло 1021.5 1017.3
З 3 22 км 10/10 50 м
[Frnb Ci ing]
+2.3 +1.7 96 -2 -1 по сезону 1021.9 1017.7 -1.1 +3.4
З 2 15 км н/о +1.8 +1.2 96 -2 -2 по сезону 1022.2 1018.0
н/о
СЗ 2 35 км 10/10 100 м
[Frnb Cs]
+2.4 +0.9 90 -1 +4 прохладно 1023.3 1019.1
З 2 35 км н/о +3.7 +0.7 81 +1 +1 по сезону 1023.4 1019.2
н/о
С 2 35 км 6/3 300 м
[Cu Sc As op]
+6.1 -0.8 61 +4 +9 по сезону 1024.0 1019.8
н/о
З 3 35 км н/о +5.7 -1.5 60 +3 +3 тепло 1024.2 1020.0
З 3 35 км 8/1 600 м
[St As op Cs]
+5.6 -0.9 63 +3 +4 по сезону 1024.4 1020.3
З 2 35 км н/о +4.8 -1.5 64 +3 +3 по сезону 1024.9 1020.7
З 2 35 км н/о +3.6 -1.5 69 +1 +1 тепло 1025.3 1021.1
З 2 35 км 4/3 +2.3 -1.3 77 -1 -1 по сезону 1025.8 1021.5 +1.5 +7.2
З 1 35 км н/о +0.7 -1.6 85 -1 -1 по сезону 1026.2 1022.0
Ю 1 35 км н/о -0.5 -2.0 90 -3 -3 по сезону 1026.5 1022.2
штиль 0 35 км н/о -0.7 -1.9 92 -2 -2 по сезону 1027.0 1022.8
штиль 0 35 км н/о -1.5 -2.1 96 -3 -3 по сезону 1027.6 1023.3
С 1 35 км н/о -0.3 -1.8 90 -2 -2 тепло 1027.7 1023.5
СВ 2 35 км ясно +1.6 -2.2 76 -2 -2 по сезону 1028.0 1023.7
С 1 35 км н/о +1.1 -2.2 79 -1 -1 тепло 1028.3 1024.0
СВ 2 35 км н/о +1.3 -1.8 80 -2 -2 тепло 1028.6 1024.4
СВ 1 35 км 4/0 -1.0 -2.9 87 -3 -3 по сезону 1029.1 1024.8
штиль 0 35 км н/о -1.8 -2.8 93 -3 -3 по сезону 1029.5 1025.2
СВ 2 35 км н/о +3.1 -1.4 72 0 0 тепло 1030.0 1025.8
СВ 4 35 км 3/0 +4.4 -2.3 62 +1 +1 по сезону 1030.3 1026.1 -2.0 +4.5
СВ 4 35 км н/о +5.3 -3.2 54 +2 +2 тепло 1030.6 1026.4
н/о
СВ 6 35 км 4/0 +6.5 -5.0 44 +3 +6 по сезону 1030.9 1026.7
СВ 6 35 км н/о +6.6 -4.9 44 +3 +3 тепло 1030.9 1026.7
СВ 6 35 км н/о +6.9 -3.2 49 +3 +3 тепло 1030.8 1026.6
СВ 6 35 км 3/0 +6.7 -6.1 40 +3 +6 по сезону 1030.5 1026.4
СВ 6 35 км н/о +7.7 -5.8 38 +4 +4 по сезону 1030.0 1025.9
СВ 6 35 км н/о +7.5 -6.5 36 +4 +4 тепло 1029.5 1025.4
СВ 5 35 км 4/0 +7.8 -6.4 36 +5 +6 по сезону 1029.1 1025.0
СВ 5 35 км н/о +7.8 -6.5 36 +5 +5 тепло 1028.6 1024.5
СВ 3 35 км н/о +6.2 -5.0 44 +4 +4 тепло 1028.6 1024.4
С 2 35 км 3/0 +3.6 -2.6 64 +1 +1 по сезону 1029.0 1024.8 +3.6 +8.2
С 2 35 км н/о +2.6 -1.4 75 -0 -0 по сезону 1029.1 1024.9
СВ 1 35 км н/о +1.9 -1.6 78 0 0 тепло 1029.2 1025.0
СВ 3 35 км 4/3
[Ac As Ci]
+2.4 -3.0 67 -1 -1 по сезону 1029.2 1025.0
СВ 2 35 км н/о +2.1 -2.7 71 -1 -1 по сезону 1029.1 1024.9
СВ 3 35 км н/о +2.6 -2.7 68 -1 -1 тепло 1028.9 1024.7
СВ 2 35 км 3/0 +2.3 -2.1 73 -1 -1 по сезону 1028.7 1024.5
СВ 3 35 км н/о +2.5 -2.1 72 -1 -1 тепло 1028.7 1024.5
СВ 4 35 км н/о +2.6 -2.0 72 -2 -2 тепло 1028.4 1024.2
СВ 4 35 км 3/0 +2.3 -1.8 74 -2 -2 по сезону 1028.2 1024.0
СВ 4 35 км н/о +2.7 -1.8 72 -2 -2 по сезону 1028.3 1024.1
СВ 5 35 км н/о +3.3 -1.4 71 -2 -2 тепло 1028.4 1024.2
СВ 5 35 км 8/0 +4.4 -1.4 66 -0 +1 по сезону 1028.5 1024.3 +1.7 +4.5
СВ 6 35 км н/о +5.1 -2.1 60 +1 +1 тепло 1028.4 1024.3
н/о
СВ 6 35 км 8/1
[Ac As Ci fib]
+6.3 -1.6 57 +2 +5 по сезону 1028.6 1024.5
СВ 7 35 км н/о +7.0 -2.3 52 +3 +3 тепло 1028.5 1024.3
СВ 7 35 км н/о +7.4 -3.6 46 +3 +3 тепло 1028.3 1024.1
СВ 8 35 км 8/1
[Ac As Ci]
+8.4 -5.3 37 +5 +6 по сезону 1028.2 1024.0
СВ 7 35 км н/о +9.3 -6.3 33 +6 +6 тепло 1027.9 1023.8
СВ 8 35 км н/о +9.8 -6.6 31 +6 +6 тепло 1027.4 1023.3
СВ 8 35 км 8/1
[Ac As Ci ing]
+9.6 -6.8 31 +6 +7 тепло 1027.2 1023.1
СВ 7 35 км н/о +9.0 -6.4 33 +6 +6 тепло 1027.1 1023.0
СВ 6 35 км н/о +8.6 -6.7 33 +5 +5 тепло 1027.3 1023.2
СВ 6 35 км 8/5
[Ac As Ci sp]
+8.1 -6.4 35 +5 +5 тепло 1027.5 1023.4 +4.3 +9.9
СВ 5 35 км н/о +8.0 -6.3 36 +5 +5 тепло 1027.8 1023.7
В 4 35 км н/о +7.6 -5.9 38 +5 +5 тепло 1027.9 1023.8
В 5 35 км 3/0 +7.5 -6.0 38 +4 +4 тепло 1028.2 1024.0
В 5 35 км н/о +7.1 -5.6 40 +4 +4 тепло 1028.3 1024.2
СВ 3 35 км н/о +5.5 -4.1 50 +3 +3 тепло 1028.2 1024.0
СВ 3 35 км ясно +4.1 -2.8 61 +1 +1 по сезону 1028.0 1023.8
СВ 3 35 км н/о +3.8 -2.4 64 0 0 тепло 1028.1 1023.9
СВ 3 35 км н/о +4.2 -2.8 60 +1 +1 тепло 1028.2 1024.0
СВ 3 35 км 3/0 +2.9 -2.1 70 -1 -1 по сезону 1028.0 1023.8
СВ 4 35 км н/о +3.3 -1.4 71 -1 -1 тепло 1028.2 1024.0
СВ 3 35 км н/о +4.5 -1.1 67 +1 +1 тепло 1028.2 1024.0
СВ 3 35 км 4/0 +5.8 -0.7 63 +3 +5 тепло 1028.5 1024.3 +2.6 +8.3
СВ 4 35 км н/о +6.8 -0.1 61 +4 +4 тепло 1028.5 1024.4
н/о
СВ 5 35 км 3/0 +7.7 -0.3 57 +4 +9 по сезону 1028.8 1024.7
СВ 5 35 км н/о +8.7 -0.4 53 +6 +6 тепло 1028.7 1024.6
Местоположение метеостанции Таллин (Эстония): широта 59.41 долгота 24.83 высота над уровнем моря 34 м.
В архиве по умолчанию представлена погода в Таллине за последнюю неделю. Архивные данные за месяц целиком и за предыдущие месяцы, начиная с января 2011 года, Вы можете получить, выбрав интересующий диапазон дат из раскрывающегося списка и нажав кнопку "Найти!".
*Определитесь, кто Вы:
Внимание! Время в таблицах - всемирное. Для получения местного времени необходимо прибавить поправку, которая равна 2 ч.
Смотрите также архив погоды в соседних городах и на ближайших метеорологических станциях:
Партнеры нашего сайта:      
Пояснения к столбцам:
  • Ветер - указаны скорость ветра в м/с - средняя за 10 мин, порывы в срок и между сроками (в фигурных скобках) и направление, откуда дует ветер: С - северный,
  • СВ - северо-восточный, В - восточный, ЮВ - юго-восточный, Ю - южный, ЮЗ - юго-западный, З - западный, СЗ - северо-западный.
  • Видимость - горизонтальная дальность видимости в метрах или километрах. При видимости от 1 до 10 км при отсутствии осадков обычно наблюдается дымка, при ухудшении видимости до 1 км и менее - туман. В сухую погоду видимость может ухудшаться дымом, пылью или мглою.
  • Явления - указаны атмосферные явления, наблюдавшиеся в срок или в последний час перед сроком; фигурными скобками обозначены явления, наблюдавшиеся между сроками (за 1-3 часа до срока); квадратными скобками обозначены град или гололедные отложения с указанием их диаметра в мм.
  • Облачность - указаны через наклонную черту общая и нижняя облачность в баллах и высота нижней границы облаков в метрах; квадратными скобками обозначены формы облаков: Ci - перистые, Cs - перисто-слоистые, Cc - перисто-кучевые, Ac - высококучевые, As - высокослоистые, Sc - слоисто-кучевые, Ns - слоисто-дождевые, Cu - кучевые, Cb - кучево-дождевые. Подробнее классификацию облаков см. в Атласе облаков (PDF).
  • T - Температура воздуха - температура, измеренная на высоте 2 м над землей.
  • Td - Температура точки росы - температура, при понижении до которой содержащийся в воздухе водяной пар достигнет насыщения.
  • f - Относительная влажность воздуха - влажноcть воздуха, измеренная на высоте 2 м над землей.
  • Te - Эффективная температура - температура, которую ощущает одетый по сезону человек в тени. Характеристика душности погоды. При расчете учитывается влияние влажности воздуха и скорости ветра на теплоощущения человека.
  • Tes - Эффективная температура на солнце - температура, которую ощущает человек, с поправкой на солнечный нагрев. Характеристика знойности погоды. Зависит от высоты солнца над горизонтом, облачности и скорости ветра. Ночью, в пасмурную погоду, а также при ветре 12 м/с и более поправка равна нулю.
  • P - Атмосферное давление - приведенное к уровню моря атмосферное давление.
  • Po - Атмосферное давление - измеренное на уровне метеостанции атмосферное давление.
  • Tmin - Минимальная температура - минимум температуры воздуха на высоте 2 м над землей.
  • Tmax - Максимальная температура - максимум температуры воздуха на высоте 2 м над землей.
  • R - Количество осадков - Количество выпавших осадков за период времени, мм. При наведении курсора мыши на число - период времени, за который выпало указанное количество осадков.
  • R24 - Количество осадков - Количество выпавших осадков за 24 часа, мм.
  • S - Снежный покров - Высота снежного покрова, см. При наведении курсора мыши на число - состояние снежного покрова и степень покрытия местности в баллах.